APRIZESAT 8

导读

APRIZESAT 8是美国发射的一颗商用遥感卫星,于2013年11月21日发射升空。该卫星属于AprizeSat系列小卫星星座,主要用于提供低分辨率对地观测服务,具备全球覆盖能力,可支持海事跟踪、环境监测等应用。其设计重量轻、成本较低,采用近地轨道运行,延续了该系列卫星模块化、高可靠性的设计思路,为商业航天领域的小卫星应用提供了实践案例。

Basic Information
目录编号:
39425
目录名称:
APRIZESAT 8
国际标识:
2013-066K
轨道中心:
EARTH
卫星名称:
APRIZESAT 8
卫星全名:
--
卫星状态:
在轨 (已飞行4677 天)
发射日期:
2013-11-21 UTC
国别 :
美国 (US)
星等 :
--
Orbit Information
数据来源 国际轨道数据
星历时间: 2026-09-11T02:16:27+0800
11小时前
查看轨道信息
半长轴: 6982.991km
偏心率: 0.0045978
轨道倾角: 97.829°
近地点辐角 6.266°
升交点赤经 200.067°
平近点角 353.912°
近地点: 572.747km
远地点: 636.961km
周期: 96.788分钟
每日圈数: 14.877865
Detailed Information
使用方式:
暂无
2D Orbit Map
3D Orbit Map
Orbit Altitude Analysis Chart
Orbit Inclination Analysis Chart
Orbit Comprehensive Analysis Chart
View Comprehensive Chart
Conjunction Data List
Event ID Objects TCA Miss Dist (km) Collision Risk Probability Collision Risk Index (CRI) Action
CDM_260913-023303-942506-960221
2026-09-13T
02:33:45+0000
1.598 km
极远距离
5.186707E-6 低风险 0.49
CDM_260911-081503-372803-942528
2026-09-11T
08:15:26+0000
1.692 km
极远距离
4.511693E-6 低风险 0.48
CDM_260913-065803-942506-513322
2026-09-13T
06:58:54+0000
2.855 km
极远距离
1.382558E-6 低风险 0.38
Miss Distance Evolution Trend with All Objects
Collision Probability Evolution Trend with All Objects